When you browse on this site, cookies collect data to enhance your experience and personalize the content and advertising you see.
Visit our Privacy Policy to learn more. By continuing to use the site, you agree to this use of cookies and data.
  • In Germany
  • List of Countries
  • For 7 days
  • Water Temperature
  • Weather Map
  • Weather Widgets
  • user-avatar
    Login

    Hourly Weather Vanadzor

    Today, 23 September, Monday

    Time Temperature Precipitation Wind Pressure Humidity
    00:00 +6°C° 0 mm 1 mps 636 mmHg 83%
    01:00 +5°C° 0 mm 0 mps 635 mmHg 81%
    02:00 +5°C° 0 mm 0 mps 635 mmHg 79%
    03:00 +5°C° 0 mm 0 mps 635 mmHg 77%
    04:00 +5°C° 0 mm 0 mps 635 mmHg 74%
    05:00 +6°C° 0 mm 1 mps 635 mmHg 70%
    06:00 +6°C° 0 mm 1 mps 635 mmHg 66%
    07:00 +9°C° 0 mm 1 mps 636 mmHg 59%
    08:00 +12°C° 0 mm 1 mps 636 mmHg 51%
    09:00 +14°C° 0 mm 1 mps 637 mmHg 43%
    10:00 +16°C° 0 mm 1 mps 637 mmHg 41%
    11:00 +18°C° 0 mm 1 mps 637 mmHg 38%
    12:00 +19°C° 0 mm 1 mps 637 mmHg 36%
    13:00 +19°C° 0 mm 2 mps 637 mmHg 37%
    14:00 +19°C° 0 mm 2 mps 637 mmHg 37%
    15:00 +19°C° 0 mm 2 mps 636 mmHg 37%
    16:00 +17°C° 0 mm 2 mps 636 mmHg 48%
    17:00 +14°C° 0 mm 1 mps 635 mmHg 58%
    18:00 +12°C° 0 mm 1 mps 634 mmHg 68%
    19:00 +11°C° 0 mm 1 mps 634 mmHg 72%
    20:00 +10°C° 0 mm 1 mps 634 mmHg 76%
    21:00 +9°C° 0 mm 1 mps 634 mmHg 80%
    22:00 +9°C° 0 mm 1 mps 634 mmHg 80%
    23:00 +9°C° 0 mm 1 mps 634 mmHg 81%

    Tomorrow, 24 September, Tuesday

    Time Temperature Precipitation Wind Pressure Humidity
    00:00 +9°C° 0 mm 1 mps 634 mmHg 81%
    01:00 +8°C° 0 mm 1 mps 634 mmHg 80%
    02:00 +8°C° 0 mm 1 mps 634 mmHg 78%
    03:00 +8°C° 0 mm 1 mps 634 mmHg 77%
    04:00 +8°C° 0 mm 1 mps 634 mmHg 76%
    05:00 +7°C° 0 mm 0 mps 634 mmHg 74%
    06:00 +6°C° 0 mm 0 mps 634 mmHg 73%
    07:00 +10°C° 0 mm 1 mps 635 mmHg 65%
    08:00 +12°C° 0 mm 1 mps 636 mmHg 58%
    09:00 +15°C° 0 mm 1 mps 637 mmHg 50%
    10:00 +16°C° 0 mm 1 mps 637 mmHg 46%
    11:00 +19°C° 0 mm 1 mps 637 mmHg 42%
    12:00 +20°C° 0 mm 1 mps 637 mmHg 38%
    13:00 +20°C° 0 mm 2 mps 637 mmHg 38%
    14:00 +20°C° 0 mm 2 mps 637 mmHg 38%
    15:00 +20°C° 0 mm 2 mps 636 mmHg 37%
    16:00 +18°C° 0 mm 2 mps 635 mmHg 50%
    17:00 +15°C° 0 mm 2 mps 634 mmHg 62%
    18:00 +13°C° 0 mm 1 mps 633 mmHg 75%
    19:00 +12°C° 0 mm 1 mps 633 mmHg 77%
    20:00 +11°C° 0 mm 1 mps 634 mmHg 80%
    21:00 +10°C° 0 mm 1 mps 634 mmHg 82%
    22:00 +10°C° 0 mm 1 mps 634 mmHg 80%
    23:00 +10°C° 0 mm 1 mps 634 mmHg 79%

    Day after tomorrow, 25 September, Wednesday

    Time Temperature Precipitation Wind Pressure Humidity
    00:00 +10°C° 0 mm 1 mps 633 mmHg 77%
    01:00 +9°C° 0 mm 0 mps 633 mmHg 74%
    02:00 +9°C° 0 mm 0 mps 633 mmHg 72%
    03:00 +9°C° 0 mm 0 mps 633 mmHg 69%
    04:00 +10°C° 0 mm 1 mps 633 mmHg 66%
    05:00 +10°C° 0 mm 1 mps 633 mmHg 63%
    06:00 +10°C° 0 mm 1 mps 633 mmHg 59%
    07:00 +12°C° 0 mm 1 mps 634 mmHg 52%
    08:00 +15°C° 0 mm 1 mps 635 mmHg 44%
    09:00 +19°C° 0 mm 1 mps 637 mmHg 36%
    10:00 +20°C° 0 mm 2 mps 637 mmHg 33%
    11:00 +21°C° 0 mm 2 mps 637 mmHg 30%
    12:00 +22°C° 0 mm 3 mps 637 mmHg 27%
    13:00 +24°C° 0 mm 3 mps 637 mmHg 27%
    14:00 +24°C° 0 mm 3 mps 637 mmHg 27%
    15:00 +24°C° 0 mm 3 mps 636 mmHg 27%
    16:00 +21°C° 0 mm 2 mps 636 mmHg 35%
    17:00 +18°C° 0 mm 2 mps 635 mmHg 43%
    18:00 +16°C° 0 mm 1 mps 634 mmHg 51%
    19:00 +15°C° 0 mm 1 mps 634 mmHg 52%
    20:00 +15°C° 0 mm 1 mps 634 mmHg 53%
    21:00 +14°C° 0 mm 1 mps 635 mmHg 54%
    22:00 +14°C° 0 mm 1 mps 635 mmHg 53%
    23:00 +14°C° 0 mm 1 mps 635 mmHg 53%

    26 September, Thursday

    Time Temperature Precipitation Wind Pressure Humidity
    00:00 +14°C° 0 mm 1 mps 635 mmHg 52%
    01:00 +13°C° 0 mm 1 mps 635 mmHg 55%
    02:00 +13°C° 0 mm 1 mps 635 mmHg 58%
    03:00 +12°C° 0 mm 1 mps 635 mmHg 62%
    04:00 +12°C° 0 mm 1 mps 635 mmHg 64%
    05:00 +11°C° 0 mm 1 mps 634 mmHg 66%
    06:00 +11°C° 0 mm 1 mps 634 mmHg 69%
    07:00 +13°C° 0 mm 1 mps 635 mmHg 62%
    08:00 +16°C° 0 mm 2 mps 636 mmHg 55%
    09:00 +18°C° 0 mm 3 mps 637 mmHg 48%
    10:00 +20°C° 0 mm 3 mps 637 mmHg 44%
    11:00 +21°C° 0 mm 4 mps 638 mmHg 41%
    12:00 +22°C° 0 mm 5 mps 638 mmHg 37%
    13:00 +23°C° 0 mm 5 mps 637 mmHg 38%
    14:00 +23°C° 0 mm 4 mps 637 mmHg 38%
    15:00 +23°C° 0 mm 4 mps 637 mmHg 39%
    16:00 +21°C° 0 mm 3 mps 636 mmHg 51%
    17:00 +18°C° 0 mm 2 mps 635 mmHg 63%
    18:00 +16°C° 0 mm 1 mps 634 mmHg 75%
    19:00 +15°C° 0 mm 1 mps 634 mmHg 79%
    20:00 +14°C° 0 mm 1 mps 635 mmHg 83%
    21:00 +13°C° 0 mm 1 mps 635 mmHg 88%
    22:00 +13°C° 0 mm 1 mps 635 mmHg 87%
    23:00 +13°C° 0 mm 1 mps 635 mmHg 87%

    27 September, Friday

    Time Temperature Precipitation Wind Pressure Humidity
    00:00 +12°C° 0 mm 1 mps 635 mmHg 86%
    01:00 +12°C° 0 mm 1 mps 635 mmHg 86%
    02:00 +12°C° 0 mm 1 mps 635 mmHg 85%
    03:00 +12°C° 0 mm 1 mps 635 mmHg 85%
    04:00 +10°C° 0 mm 0 mps 635 mmHg 85%
    05:00 +10°C° 0 mm 0 mps 635 mmHg 84%
    06:00 +10°C° 0 mm 0 mps 635 mmHg 83%
    07:00 +13°C° 0 mm 1 mps 635 mmHg 75%
    08:00 +16°C° 0 mm 1 mps 636 mmHg 67%
    09:00 +19°C° 0 mm 1 mps 637 mmHg 59%
    10:00 +20°C° 0 mm 1 mps 637 mmHg 55%
    11:00 +21°C° 0 mm 2 mps 637 mmHg 51%
    12:00 +23°C° 0 mm 2 mps 638 mmHg 46%
    13:00 +22°C° 0 mm 3 mps 637 mmHg 47%
    14:00 +22°C° 0 mm 3 mps 637 mmHg 47%
    15:00 +22°C° 0 mm 3 mps 636 mmHg 47%
    16:00 +20°C° 0.1 mm 2 mps 635 mmHg 60%
    17:00 +18°C° 0.1 mm 2 mps 635 mmHg 72%
    18:00 +16°C° 0.1 mm 2 mps 634 mmHg 84%
    19:00 +15°C° 0 mm 1 mps 634 mmHg 86%
    20:00 +15°C° 0 mm 1 mps 634 mmHg 87%
    21:00 +14°C° 0 mm 1 mps 634 mmHg 89%
    22:00 +14°C° 0 mm 1 mps 634 mmHg 85%
    23:00 +14°C° 0 mm 1 mps 634 mmHg 81%

    28 September, Saturday

    Time Temperature Precipitation Wind Pressure Humidity
    00:00 +14°C° 0 mm 1 mps 634 mmHg 77%
    01:00 +13°C° 0 mm 1 mps 634 mmHg 77%
    02:00 +13°C° 0 mm 1 mps 633 mmHg 77%
    03:00 +13°C° 0 mm 1 mps 633 mmHg 78%
    04:00 +13°C° 0.1 mm 1 mps 634 mmHg 80%
    05:00 +12°C° 0.1 mm 2 mps 634 mmHg 83%
    06:00 +12°C° 0.1 mm 2 mps 634 mmHg 85%
    07:00 +14°C° 0.1 mm 2 mps 635 mmHg 78%
    08:00 +16°C° 0.1 mm 1 mps 635 mmHg 70%
    09:00 +18°C° 0.1 mm 1 mps 636 mmHg 62%
    10:00 +18°C° 0.3 mm 2 mps 636 mmHg 59%
    11:00 +19°C° 0.3 mm 3 mps 636 mmHg 55%
    12:00 +19°C° 0.3 mm 3 mps 636 mmHg 51%
    13:00 +19°C° 0.3 mm 3 mps 636 mmHg 51%
    14:00 +19°C° 0.3 mm 3 mps 636 mmHg 50%
    15:00 +19°C° 0.3 mm 3 mps 635 mmHg 49%
    16:00 +17°C° 0.1 mm 2 mps 635 mmHg 58%
    17:00 +15°C° 0.1 mm 2 mps 635 mmHg 66%
    18:00 +14°C° 0.1 mm 1 mps 635 mmHg 75%
    19:00 +13°C° 0 mm 1 mps 635 mmHg 78%
    20:00 +12°C° 0 mm 1 mps 635 mmHg 80%
    21:00 +10°C° 0 mm 0 mps 635 mmHg 83%
    22:00 +10°C° 0 mm 0 mps 635 mmHg 83%
    23:00 +10°C° 0 mm 0 mps 635 mmHg 82%
    Show more